sat.trackr.live / text

‹ back to catalog

STARLINK-11444 [DTC]

NORAD 62409 · 2024-249A

PAYLOAD ACTIVE UNKNOWN

§ Identity

Operator
Country
US
Launch date
2024-12-23
Launch site
AFETR
Launch vehicle
Mass (kg)
RCS (m²)

Purposes: comms

External: N2YO · Heavens-Above · Gunter

§ Orbital elements

Epoch: 2026-05-25T03:47:40.831008Z

Period
91.67 min
Inclination
43.0011°
Eccentricity
0.0001790
Mean motion
15.70906817 rev/d
Perigee alt
355.1 km
Apogee alt
357.5 km
Semi-major
6,734.4 km
B*
2.2628e-3
RAAN
67.0429°
Arg perigee
283.7693°
Mean anomaly
76.2975°
Rev number
8,150

§ Raw data

STARLINK-11444 [DTC]1 62409U 24249A   26145.15811147  .00301521  00000+0  22628-2 0  99912 62409  43.0011  67.0429 0001790 283.7693  76.2975 15.70906817 81509

JSON: /api/v1/satellites/62409 · /tle

For live sub-satellite position, see the globe view (requires WebGL).

§ Visibility from observer

Set your observer location to see the next 7 days of passes ≥ 10°. The values pass through the URL so the page stays shareable.

No JS? Fill the form by hand. The geolocation button needs JavaScript.